TimeCDT,TemperatureF,Dew PointF,Humidity,Sea Level PressureIn,VisibilityMPH,Wind Direction,Wind SpeedMPH,Gust SpeedMPH,PrecipitationIn,Events,Conditions,WindDirDegrees,DateUTC
12:15 AM,26.6,26.6,100,30.28,10.0,ESE,8.1,-,N/A,,Clear,110,2013-04-03 05:15:00
12:35 AM,26.6,26.6,100,30.28,10.0,ESE,9.2,-,N/A,,Clear,120,2013-04-03 05:35:00
12:55 AM,26.6,26.6,100,30.28,10.0,ESE,8.1,-,N/A,,Clear,120,2013-04-03 05:55:00
1:15 AM,26.6,26.6,100,30.28,10.0,ESE,8.1,-,N/A,,Clear,120,2013-04-03 06:15:00
1:35 AM,26.6,26.6,100,30.28,10.0,ESE,8.1,-,N/A,,Clear,120,2013-04-03 06:35:00
1:55 AM,26.6,26.6,100,30.27,10.0,ESE,8.1,-,N/A,,Clear,110,2013-04-03 06:55:00
2:15 AM,24.8,24.8,100,30.28,10.0,SE,9.2,-,N/A,,Clear,130,2013-04-03 07:15:00
2:35 AM,26.6,26.6,100,30.27,10.0,SE,11.5,-,N/A,,Clear,140,2013-04-03 07:35:00
2:55 AM,26.6,26.6,100,30.27,10.0,SE,9.2,-,N/A,,Clear,140,2013-04-03 07:55:00
3:15 AM,26.6,26.6,100,30.26,10.0,SSE,11.5,-,N/A,,Clear,150,2013-04-03 08:15:00
3:35 AM,26.6,26.6,100,30.25,10.0,SSE,12.7,-,N/A,,Clear,150,2013-04-03 08:35:00
3:55 AM,26.6,26.6,100,30.25,10.0,SSE,13.8,-,N/A,,Clear,150,2013-04-03 08:55:00
4:15 AM,26.6,26.6,100,30.25,10.0,SSE,15.0,19.6,N/A,,Clear,160,2013-04-03 09:15:00
4:35 AM,26.6,26.6,100,30.25,10.0,SSE,15.0,-,N/A,,Clear,160,2013-04-03 09:35:00
4:55 AM,26.6,26.6,100,30.24,10.0,SSE,15.0,-,N/A,,Clear,150,2013-04-03 09:55:00
5:15 AM,26.6,26.6,100,30.24,10.0,SSE,15.0,-,N/A,,Clear,150,2013-04-03 10:15:00
5:35 AM,26.6,26.6,100,30.23,10.0,SSE,13.8,19.6,N/A,,Clear,150,2013-04-03 10:35:00
5:55 AM,26.6,26.6,100,30.23,10.0,SSE,15.0,18.4,N/A,,Clear,150,2013-04-03 10:55:00
6:15 AM,26.6,26.6,100,30.22,10.0,SSE,15.0,19.6,N/A,,Clear,150,2013-04-03 11:15:00
6:35 AM,26.6,26.6,100,30.23,10.0,SSE,15.0,-,N/A,,Clear,150,2013-04-03 11:35:00
6:55 AM,26.6,26.6,100,30.23,10.0,SSE,12.7,-,N/A,,Clear,150,2013-04-03 11:55:00
7:15 AM,26.6,26.6,100,30.22,10.0,SSE,16.1,20.7,N/A,,Clear,150,2013-04-03 12:15:00
7:35 AM,26.6,26.6,100,30.22,10.0,SSE,16.1,21.9,N/A,,Clear,160,2013-04-03 12:35:00
7:55 AM,28.4,28.4,100,30.21,10.0,SSE,16.1,23.0,N/A,,Clear,150,2013-04-03 12:55:00
8:15 AM,28.4,28.4,100,30.21,10.0,SSE,17.3,24.2,N/A,,Clear,160,2013-04-03 13:15:00
8:35 AM,30.2,30.2,100,30.20,10.0,South,18.4,26.5,N/A,,Clear,170,2013-04-03 13:35:00
8:55 AM,32.0,32.0,100,30.19,10.0,South,19.6,26.5,N/A,,Clear,170,2013-04-03 13:55:00
9:15 AM,32.0,32.0,100,30.18,10.0,South,21.9,28.8,N/A,,Clear,170,2013-04-03 14:15:00
9:35 AM,33.8,32.0,93,30.17,10.0,South,20.7,27.6,N/A,,Clear,180,2013-04-03 14:35:00
9:55 AM,35.6,32.0,87,30.17,10.0,South,20.7,-,N/A,,Clear,180,2013-04-03 14:55:00
10:15 AM,37.4,32.0,81,30.16,10.0,South,20.7,26.5,N/A,,Clear,190,2013-04-03 15:15:00
10:35 AM,39.2,32.0,75,30.15,10.0,South,21.9,26.5,N/A,,Clear,190,2013-04-03 15:35:00
10:55 AM,41.0,32.0,70,30.14,10.0,South,20.7,27.6,N/A,,Clear,190,2013-04-03 15:55:00
11:15 AM,41.0,32.0,70,30.14,10.0,South,19.6,24.2,N/A,,Clear,190,2013-04-03 16:15:00
11:35 AM,42.8,32.0,66,30.14,10.0,South,17.3,26.5,N/A,,Clear,190,2013-04-03 16:35:00
11:55 AM,44.6,32.0,61,30.14,10.0,South,19.6,25.3,N/A,,Clear,180,2013-04-03 16:55:00
12:15 PM,48.2,33.8,58,30.13,10.0,South,19.6,25.3,N/A,,Clear,190,2013-04-03 17:15:00
12:35 PM,50.0,35.6,58,30.12,10.0,SSW,18.4,25.3,N/A,,Clear,200,2013-04-03 17:35:00
12:55 PM,51.8,35.6,54,30.11,10.0,South,21.9,28.8,N/A,,Clear,190,2013-04-03 17:55:00
1:15 PM,55.4,37.4,51,30.09,10.0,SSW,23.0,33.4,N/A,,Clear,200,2013-04-03 18:15:00
1:35 PM,55.4,35.6,47,30.09,10.0,SW,20.7,28.8,N/A,,Clear,220,2013-04-03 18:35:00
1:55 PM,57.2,35.6,44,30.08,10.0,SSW,19.6,26.5,N/A,,Clear,210,2013-04-03 18:55:00
2:15 PM,57.2,35.6,44,30.07,10.0,SSW,18.4,29.9,N/A,,Clear,200,2013-04-03 19:15:00
2:35 PM,59.0,35.6,42,30.06,10.0,SSW,21.9,29.9,N/A,,Clear,200,2013-04-03 19:35:00
2:55 PM,59.0,35.6,42,30.05,10.0,SSW,21.9,29.9,N/A,,Clear,200,2013-04-03 19:55:00
3:15 PM,60.8,33.8,36,30.03,10.0,SSW,26.5,34.5,N/A,,Clear,210,2013-04-03 20:15:00
3:35 PM,60.8,32.0,34,30.03,10.0,SSW,25.3,36.8,N/A,,Clear,210,2013-04-03 20:35:00
3:55 PM,62.6,32.0,32,30.03,10.0,SW,24.2,34.5,N/A,,Clear,220,2013-04-03 20:55:00
4:15 PM,62.6,32.0,32,30.02,10.0,SW,25.3,31.1,N/A,,Clear,220,2013-04-03 21:15:00
4:35 PM,62.6,32.0,32,30.02,10.0,SSW,24.2,38.0,N/A,,Clear,210,2013-04-03 21:35:00
4:55 PM,62.6,32.0,32,30.01,10.0,SSW,26.5,32.2,N/A,,Clear,210,2013-04-03 21:55:00
5:15 PM,60.8,32.0,34,30.01,10.0,SW,23.0,32.2,N/A,,Clear,220,2013-04-03 22:15:00
5:35 PM,60.8,32.0,34,30.01,10.0,SW,21.9,29.9,N/A,,Clear,220,2013-04-03 22:35:00
5:55 PM,59.0,32.0,36,30.01,10.0,SSW,25.3,31.1,N/A,,Clear,210,2013-04-03 22:55:00
6:15 PM,59.0,28.4,31,30.01,10.0,SSW,26.5,31.1,N/A,,Clear,210,2013-04-03 23:15:00
6:35 PM,57.2,30.2,36,30.01,10.0,SSW,21.9,27.6,N/A,,Clear,210,2013-04-03 23:35:00
6:55 PM,57.2,30.2,36,30.01,10.0,SSW,16.1,31.1,N/A,,Clear,210,2013-04-03 23:55:00
7:15 PM,55.4,30.2,38,30.01,10.0,SSW,18.4,-,N/A,,Clear,210,2013-04-04 00:15:00
7:35 PM,53.6,30.2,41,30.02,10.0,SSW,17.3,-,N/A,,Clear,210,2013-04-04 00:35:00
7:55 PM,51.8,30.2,44,30.01,10.0,SSW,17.3,23.0,N/A,,Clear,200,2013-04-04 00:55:00
8:15 PM,50.0,28.4,43,30.01,10.0,SSW,17.3,-,N/A,,Clear,200,2013-04-04 01:15:00
8:35 PM,48.2,28.4,46,30.01,10.0,SSW,16.1,-,N/A,,Clear,200,2013-04-04 01:35:00
8:55 PM,48.2,28.4,46,30.01,10.0,SSW,18.4,23.0,N/A,,Clear,200,2013-04-04 01:55:00
9:15 PM,48.2,28.4,46,30.01,10.0,South,18.4,25.3,N/A,,Clear,190,2013-04-04 02:15:00
9:35 PM,46.4,28.4,50,30.02,10.0,South,15.0,-,N/A,,Clear,190,2013-04-04 02:35:00
9:55 PM,46.4,28.4,50,30.02,10.0,South,19.6,-,N/A,,Clear,190,2013-04-04 02:55:00
10:15 PM,44.6,28.4,53,30.02,10.0,South,20.7,-,N/A,,Partly Cloudy,190,2013-04-04 03:15:00
10:35 PM,44.6,28.4,53,30.02,10.0,South,18.4,-,N/A,,Partly Cloudy,190,2013-04-04 03:35:00
10:55 PM,44.6,28.4,53,30.02,10.0,South,16.1,25.3,N/A,,Scattered Clouds,190,2013-04-04 03:55:00
11:15 PM,44.6,28.4,53,30.03,10.0,SSW,15.0,23.0,N/A,,Scattered Clouds,200,2013-04-04 04:15:00
11:35 PM,44.6,28.4,53,30.03,10.0,SSW,18.4,25.3,N/A,,Scattered Clouds,200,2013-04-04 04:35:00
11:55 PM,44.6,28.4,53,30.02,10.0,SSW,19.6,26.5,N/A,,Scattered Clouds,200,2013-04-04 04:55:00